Regional Weather Roundup
Issued by NWS

Home | Current Version | Previous Version | Graphics & Text | Print | Product List | Glossary Off
Versions: 1 2 3 4 5 6 7 8 9 10 11 12 13 14 15 16 17 18 19 20 21 22 23 24 25 26 27 28 29 30 31 32 33 34 35 36 37 38 39 40 41 42 43 44 45 46 47 48 49 50

000
ASUS43 KMKX 302121
RWRWI

WISCONSIN REGIONAL WEATHER ROUNDUP
NATIONAL WEATHER SERVICE MILWAUKEE/SULLIVAN WI
400 PM CDT SUN AUG 30 2015

NOTE: "FAIR" INDICATES FEW OR NO CLOUDS BELOW 12,000 FEET WITH NO
SIGNIFICANT WEATHER AND/OR OBSTRUCTIONS TO VISIBILITY.

WIZ001-002-006>008-014>016-023>028-302200-
NORTHWEST WISCONSIN

CITY           SKY/WX    TMP DP  RH WIND       PRES   REMARKS
SUPERIOR ARPT  SUNNY     82  69  64 SW10      29.86S HX  85
ASHLAND        SUNNY     82  64  54 SW16G23   29.89F HX  83
HAYWARD        SUNNY     78  62  57 SW13      29.94F HX  80
SIREN          SUNNY     81  64  56 S8        29.93S HX  82
CUMBERLAND     SUNNY     73  63  68 S9        29.96F
RICE LAKE      SUNNY     76  63  64 S10       29.98S
CHETEK         SUNNY    N/A N/A N/A MISG      29.97F
LADYSMITH      SUNNY     78  65  64 S10       29.99F HX  80
EAU CLAIRE     SUNNY     76  63  64 SW12      29.97F
MENOMONIE      SUNNY     78  65  65 S8        29.98F HX  80
NEW RICHMOND   SUNNY     78  64  62 S13       29.96S HX  80
OSCEOLA        SUNNY     80  65  60 S14       29.96F HX  81
$$

WIZ003>005-009-010-017-018-302200-
NORTH CENTRAL WISCONSIN

CITY           SKY/WX    TMP DP  RH WIND       PRES   REMARKS
MANITOWISH WTR MOSUNNY   78  65  63 SW8       29.96F HX  80
ARBOR VITAE    SUNNY     79  66  65 S10       29.98S HX  81
WOODRUFF       SUNNY     79  66  65 S10       29.98S HX  81
RHINELANDER    SUNNY     77  62  59 SW8       30.00
EAGLE RIVER    SUNNY     76  61  57 SW10      29.98S
LAND O LAKES   MOSUNNY   78  62  56 SW10      29.98S HX  80
PHILLIPS       SUNNY     77  65  66 S9        29.97F
TOMAHAWK       MOSUNNY   76  64  64 CALM      30.00F
MEDFORD        SUNNY     73  64  73 S10       30.01S
MERRILL        MOSUNNY   77  65  66 SW9       30.00F
$$

WIZ029-030-035-036-043>047-302200-
CENTRAL WISCONSIN

CITY           SKY/WX    TMP DP  RH WIND       PRES   REMARKS
WAUSAU         MOSUNNY   77  63  61 S9        29.99F
MOSINEE        SUNNY     75  64  69 SW9       30.02F
MARSHFIELD     SUNNY     77  62  59 S8        30.01F
STEVENS POINT  SUNNY     74  62  64 SW9       30.01F
WAUPACA        SUNNY     77  64  63 S7        30.01F
WAUTOMA        SUNNY     76  65  68 SW7       30.02F
WISC RAPIDS    SUNNY     76  62  62 S9        30.02F
CAMP DOUGLAS   SUNNY     76  71  84 S6        30.01F
$$

WIZ011>013-019>022-031-037>040-048>050-302200-
NORTHEAST WISCONSIN

CITY           SKY/WX    TMP DP  RH WIND       PRES   REMARKS
ANTIGO         MOSUNNY   77  62  59 SW9       30.01F
SHAWANO        SUNNY     77  64  64 SW5       30.00F
OCONTO         SUNNY     74  64  70 SW10      29.99S
STURGEON BAY   SUNNY     73  63  68 SW9       30.01F
GREEN BAY      MOSUNNY   74  65  73 S9        30.01S
MANITOWOC      MOSUNNY   70  63  78 MISG      30.02F
APPLETON       MOSUNNY   72  61  68 SW8       30.01F
CLINTONVILLE   SUNNY     73  63  68 SW9       30.00F
OSHKOSH        SUNNY     73  63  70 S7        30.02F
$$

WIZ032>034-041-042-053>061-302200-
SOUTHWEST WISCONSIN

CITY           SKY/WX    TMP DP  RH WIND       PRES   REMARKS
LA CROSSE      PTSUNNY   75  64  68 S7        30.00F
SPARTA         MOSUNNY   75  61  61 S5        30.03F
VIROQUA          N/A     72  63  74 S6        30.05S
BOSCOBEL       MOSUNNY   76  63  64 SW7       30.03F
PRAIRIE DU CHI MOSUNNY   74  61  63 S6        30.02F
PLATTEVILLE    MOSUNNY   74  66  77 W7        30.05S
$$

WIZ056-057-062-063-064-067-068-302200-
SOUTH CENTRAL WISCONSIN

CITY           SKY/WX    TMP DP  RH WIND       PRES   REMARKS
REEDSBURG      SUNNY     75  65  71 S6        30.03F
BARABOO/DELLS  MOSUNNY   75  62  64 SW8       30.03F
LONE ROCK      MOSUNNY   76  64  66 SW7       30.03F
MINERAL POINT  SUNNY     75  64  69 SW6       30.05S
MADISON        PTSUNNY   73  62  68 VRB3      30.03F
MIDDLETON      SUNNY     76  62  62 CALM      30.04F
WATERTOWN      PTSUNNY   73  65  78 SW3       30.03F
MONROE         SUNNY     73  61  64 CALM      30.05S
JANESVILLE     MOSUNNY   75  63  64 CALM        N/A
$$

WIZ051-052-058>065-066-070>072-302200-
SOUTHEAST WISCONSIN

CITY           SKY/WX    TMP DP  RH WIND       PRES   REMARKS
MILWAUKEE      CLOUDY    70  62  76 SE9       30.03F
WAUKESHA       MOSUNNY   72  63  73 SW5       30.05F
MILWAUKEE/TIMM MOSUNNY   73  61  64 SW7       30.04F
RACINE         MOSUNNY   70  62  76 SE7       30.05F
BURLINGTON     MOSUNNY   73  61  64 SW5       30.04S
KENOSHA        PTSUNNY   72  64  76 SE6       30.04F
FOND DU LAC    MOSUNNY   73  63  70 SW8       30.03F
SHEBOYGAN      MOSUNNY   73  64  73 SW7       30.02F
WEST BEND      MOSUNNY   73  61  64 CALM      30.03F
JUNEAU         MOSUNNY   71  62  75 S6        30.05F
$$

LSZ147-162-302200-
LAKE SUPERIOR

STATION/POSITION TIME  TEMP    WIND        PRES    WAVE
                       AIR SEA DIR/SP/G            HT/PER
                 (UTC) (F)     (DEG/KT/KT) (MB)    (FT/S)
W MID LAKE BUOY  2050   60 55  240/  6/  8 1010.9F   1
DEVILS ISLAND    2100   66     220/ 10/ 13 1011.0F
PORT WING        2000   81     210/  9/ 14 1011.5F
SAXON HARBOR     2040   84     200/  6/ 12 1011.5F
$$

LMZ867-665-643>646-302200-
LAKE MICHIGAN

STATION/POSITION TIME  TEMP    WIND        PRES    WAVE
                       AIR SEA DIR/SP/G            HT/PER
                 (UTC) (F)     (DEG/KT/KT) (MB)    (FT/S)
CHAMBERS ISLAND  2000   70     180/  9/ 16 1015.2F
S GREEN BAY BUOY 2100   68 64  200/ 10/ 12 1017.0
N MID LAKE BUOY  2050   64 65  200/ 16/ 17 1015.1F   2/ 3
NORTHPORT PIER   2000   69     160/  7/ 13 1015.6F
SHEBOYGAN LAKESH 2100   63     170/ 12/ 12 1017.0F
PORT WASHINGTON  2000   65     190/  3/  5 1017.9
ATWATER BUOY     2100   60 51  190/  2/  4 1018.6F
MILWAUKEE LAKESH 2000   60     190/  2/  2   N/A
S MID LAKE BUOY  2050   66 69  330/  4/  4 1017.2F   1
KENOSHA   LAKESH 2100   64     160/  5/  6 1016.9F
$$

TC  - TEMPERATURE IN CELSIUS
VSB - VISIBILITY IN STATUTE MILES
WCI - WIND CHILL INDEX
HX  - HEAT INDEX




USA.gov is the U.S. government's official web portal to all federal, state and local government web resources and services.